TimeEST,TemperatureF,Dew PointF,Humidity,Sea Level PressureIn,VisibilityMPH,Wind Direction,Wind SpeedMPH,Gust SpeedMPH,PrecipitationIn,Events,Conditions,WindDirDegrees,DateUTC
12:51 AM,42.8,30.2,61,30.05,10.0,SSE,4.6,-,N/A,,Clear,150,2012-12-20 05:51:00
1:51 AM,42.1,30.9,65,30.06,10.0,SSE,9.2,-,N/A,,Clear,150,2012-12-20 06:51:00
2:51 AM,43.0,30.9,62,30.03,10.0,SE,11.5,19.6,N/A,,Clear,140,2012-12-20 07:51:00
3:51 AM,44.1,32.0,63,30.03,10.0,SE,15.0,27.6,N/A,,Clear,140,2012-12-20 08:51:00
4:51 AM,42.1,30.9,65,30.01,10.0,SSE,12.7,24.2,N/A,,Clear,150,2012-12-20 09:51:00
5:51 AM,42.1,30.9,65,29.99,10.0,SE,15.0,23.0,N/A,,Clear,130,2012-12-20 10:51:00
6:51 AM,39.9,30.9,70,29.97,10.0,SE,19.6,29.9,N/A,,Clear,130,2012-12-20 11:51:00
7:51 AM,39.9,30.0,68,29.93,10.0,SE,26.5,38.0,N/A,,Clear,130,2012-12-20 12:51:00
8:51 AM,39.9,30.9,70,29.91,10.0,SE,13.8,24.2,N/A,,Scattered Clouds,130,2012-12-20 13:51:00
9:51 AM,41.0,30.9,67,29.91,10.0,SE,15.0,27.6,N/A,,Overcast,140,2012-12-20 14:51:00
10:51 AM,39.0,32.0,76,29.95,6.0,SE,18.4,33.4,0.00,Rain,Light Rain,140,2012-12-20 15:51:00
11:51 AM,37.0,33.1,86,29.86,6.0,SE,20.7,35.7,0.07,Rain,Light Rain,130,2012-12-20 16:51:00
12:51 PM,37.9,33.1,83,29.79,10.0,SE,16.1,28.8,0.05,,Overcast,130,2012-12-20 17:51:00
1:51 PM,39.9,35.1,83,29.72,7.0,SSE,18.4,27.6,0.01,Rain,Light Rain,150,2012-12-20 18:51:00
2:51 PM,39.2,35.6,87,29.65,8.0,SSE,16.1,33.4,N/A,Rain,Light Rain,150,2012-12-20 19:51:00
3:51 PM,39.9,35.1,83,29.60,7.0,SE,15.0,29.9,0.05,Rain,Light Rain,140,2012-12-20 20:51:00
4:47 PM,39.2,37.4,93,29.57,5.0,SSE,12.7,24.2,0.06,Rain,Light Rain,150,2012-12-20 21:47:00
4:51 PM,39.9,37.0,89,29.59,5.0,SSE,16.1,28.8,0.07,Rain,Light Rain,150,2012-12-20 21:51:00
5:11 PM,39.2,37.4,93,29.53,8.0,SE,20.7,36.8,0.02,Rain,Rain,140,2012-12-20 22:11:00
5:42 PM,39.2,37.4,93,29.57,8.0,South,8.1,25.3,0.06,Rain,Light Rain,180,2012-12-20 22:42:00
5:51 PM,39.9,37.0,89,29.59,10.0,SSE,13.8,-,0.07,Rain,Light Rain,160,2012-12-20 22:51:00
6:51 PM,41.0,37.9,89,29.57,10.0,South,11.5,18.4,0.00,Rain,Light Rain,190,2012-12-20 23:51:00
7:51 PM,39.9,37.0,89,29.51,10.0,SSE,11.5,24.2,0.03,,Mostly Cloudy,160,2012-12-21 00:51:00
7:59 PM,41.0,37.4,87,29.47,10.0,SSE,15.0,24.2,N/A,,Scattered Clouds,160,2012-12-21 00:59:00
8:39 PM,41.0,37.4,87,29.49,10.0,SW,11.5,-,N/A,,Mostly Cloudy,230,2012-12-21 01:39:00
8:51 PM,42.1,39.0,89,29.52,7.0,South,8.1,-,0.02,Rain,Rain,190,2012-12-21 01:51:00
9:01 PM,42.8,39.2,87,29.49,9.0,SSW,6.9,18.4,0.01,Rain,Light Rain,200,2012-12-21 02:01:00
9:26 PM,42.8,39.2,87,29.48,10.0,South,11.5,25.3,0.02,Rain,Light Rain,190,2012-12-21 02:26:00
9:51 PM,45.0,39.9,82,29.48,10.0,SSW,16.1,31.1,0.02,,Overcast,210,2012-12-21 02:51:00
10:19 PM,44.6,39.2,81,29.47,9.0,WSW,23.0,34.5,0.00,Rain,Light Rain,240,2012-12-21 03:19:00
10:51 PM,39.9,34.0,79,29.52,10.0,WSW,17.3,28.8,0.01,Rain,Light Rain,250,2012-12-21 03:51:00
11:09 PM,39.2,33.8,81,29.49,10.0,WSW,16.1,26.5,0.00,,Overcast,250,2012-12-21 04:09:00
11:20 PM,37.4,33.8,87,29.49,10.0,West,10.4,23.0,0.00,Rain,Light Rain,280,2012-12-21 04:20:00
11:25 PM,37.4,33.8,87,29.50,10.0,WNW,10.4,23.0,0.00,Rain,Light Rain,290,2012-12-21 04:25:00
11:51 PM,36.0,30.9,82,29.56,10.0,WSW,17.3,24.2,0.00,Rain,Light Rain,250,2012-12-21 04:51:00
11:59 PM,35.6,30.2,81,29.51,10.0,West,15.0,26.5,0.00,,Overcast,260,2012-12-21 04:59:00